owner,sensor,date,latitude,longitude,air_pressure(mBar),qcFlag 
WAVCIS,ioos:station:WAVCIS:CSI06:1,2017-01-01T00:00:00Z,28.8667,-90.4833,1013.22,11111222 
WAVCIS,ioos:station:WAVCIS:CSI06:1,2017-01-01T01:00:00Z,28.8667,-90.4833,1013.72,11111222 
WAVCIS,ioos:station:WAVCIS:CSI06:1,2017-01-01T02:00:00Z,28.8667,-90.4833,1013.74,11111222 
WAVCIS,ioos:station:WAVCIS:CSI06:1,2017-01-01T03:00:00Z,28.8667,-90.4833,1013.9,11111222 
WAVCIS,ioos:station:WAVCIS:CSI06:1,2017-01-01T04:00:00Z,28.8667,-90.4833,1013.8,11111222 
WAVCIS,ioos:station:WAVCIS:CSI06:1,2017-01-01T05:00:00Z,28.8667,-90.4833,1014.15,11111222 
WAVCIS,ioos:station:WAVCIS:CSI06:1,2017-01-01T06:00:00Z,28.8667,-90.4833,1013.82,11111222 
WAVCIS,ioos:station:WAVCIS:CSI06:1,2017-01-01T07:00:00Z,28.8667,-90.4833,1013.41,11111222 
WAVCIS,ioos:station:WAVCIS:CSI06:1,2017-01-01T08:00:00Z,28.8667,-90.4833,1013.42,11111222 
WAVCIS,ioos:station:WAVCIS:CSI06:1,2017-01-01T09:00:00Z,28.8667,-90.4833,1013.49,11111222 
WAVCIS,ioos:station:WAVCIS:CSI06:1,2017-01-01T10:00:00Z,28.8667,-90.4833,1013.57,11111222 
WAVCIS,ioos:station:WAVCIS:CSI06:1,2017-01-01T11:00:00Z,28.8667,-90.4833,1013.62,11111222 
WAVCIS,ioos:station:WAVCIS:CSI06:1,2017-01-01T12:00:00Z,28.8667,-90.4833,1013.91,11111222 
WAVCIS,ioos:station:WAVCIS:CSI06:1,2017-01-01T13:00:00Z,28.8667,-90.4833,1014.23,11111222 
WAVCIS,ioos:station:WAVCIS:CSI06:1,2017-01-01T14:00:00Z,28.8667,-90.4833,1015.05,11111222 
WAVCIS,ioos:station:WAVCIS:CSI06:1,2017-01-01T15:00:00Z,28.8667,-90.4833,1015.9,11111222 
WAVCIS,ioos:station:WAVCIS:CSI06:1,2017-01-01T16:00:00Z,28.8667,-90.4833,1016.55,11111222 
WAVCIS,ioos:station:WAVCIS:CSI06:1,2017-01-01T17:00:00Z,28.8667,-90.4833,1016.46,11111222 
WAVCIS,ioos:station:WAVCIS:CSI06:1,2017-01-01T18:00:00Z,28.8667,-90.4833,1015.42,11111222 
WAVCIS,ioos:station:WAVCIS:CSI06:1,2017-01-01T19:00:00Z,28.8667,-90.4833,1014.46,11111222 
WAVCIS,ioos:station:WAVCIS:CSI06:1,2017-01-01T20:00:00Z,28.8667,-90.4833,1014.27,11111222 
WAVCIS,ioos:station:WAVCIS:CSI06:1,2017-01-01T21:00:00Z,28.8667,-90.4833,1014.24,11111222 
WAVCIS,ioos:station:WAVCIS:CSI06:1,2017-01-01T22:00:00Z,28.8667,-90.4833,1014.55,11111222 
WAVCIS,ioos:station:WAVCIS:CSI06:1,2017-01-01T23:00:00Z,28.8667,-90.4833,1014.78,11111222 
WAVCIS,ioos:station:WAVCIS:CSI06:1,2017-01-02T00:00:00Z,28.8667,-90.4833,1015.05,11111222 
WAVCIS,ioos:station:WAVCIS:CSI06:1,2017-01-02T01:00:00Z,28.8667,-90.4833,1015.65,11111222 
WAVCIS,ioos:station:WAVCIS:CSI06:1,2017-01-02T02:00:00Z,28.8667,-90.4833,1016.79,11111222 
WAVCIS,ioos:station:WAVCIS:CSI06:1,2017-01-02T03:00:00Z,28.8667,-90.4833,1015.9,11111222 
WAVCIS,ioos:station:WAVCIS:CSI06:1,2017-01-02T04:00:00Z,28.8667,-90.4833,1016.19,11111222 
WAVCIS,ioos:station:WAVCIS:CSI06:1,2017-01-02T05:00:00Z,28.8667,-90.4833,1016.18,11111222 
WAVCIS,ioos:station:WAVCIS:CSI06:1,2017-01-02T06:00:00Z,28.8667,-90.4833,1015.54,11111222 
WAVCIS,ioos:station:WAVCIS:CSI06:1,2017-01-02T07:00:00Z,28.8667,-90.4833,1015.86,11111222 
WAVCIS,ioos:station:WAVCIS:CSI06:1,2017-01-02T08:00:00Z,28.8667,-90.4833,1015.48,11111222 
WAVCIS,ioos:station:WAVCIS:CSI06:1,2017-01-02T09:00:00Z,28.8667,-90.4833,1015.22,11111222 
WAVCIS,ioos:station:WAVCIS:CSI06:1,2017-01-02T10:00:00Z,28.8667,-90.4833,1014.73,11111222 
WAVCIS,ioos:station:WAVCIS:CSI06:1,2017-01-02T11:00:00Z,28.8667,-90.4833,1014.65,11111222 
WAVCIS,ioos:station:WAVCIS:CSI06:1,2017-01-02T12:00:00Z,28.8667,-90.4833,1014.33,11111222 
WAVCIS,ioos:station:WAVCIS:CSI06:1,2017-01-02T13:00:00Z,28.8667,-90.4833,1014.66,11111222 
WAVCIS,ioos:station:WAVCIS:CSI06:1,2017-01-02T14:00:00Z,28.8667,-90.4833,1014.63,11111222 
WAVCIS,ioos:station:WAVCIS:CSI06:1,2017-01-02T15:00:00Z,28.8667,-90.4833,1015.28,11111222 
WAVCIS,ioos:station:WAVCIS:CSI06:1,2017-01-02T16:00:00Z,28.8667,-90.4833,1015.94,11111222 
WAVCIS,ioos:station:WAVCIS:CSI06:1,2017-01-02T17:00:00Z,28.8667,-90.4833,1014.78,11111222 
WAVCIS,ioos:station:WAVCIS:CSI06:1,2017-01-02T18:00:00Z,28.8667,-90.4833,1013.15,11111222 
WAVCIS,ioos:station:WAVCIS:CSI06:1,2017-01-02T19:00:00Z,28.8667,-90.4833,1012.54,11111222 
WAVCIS,ioos:station:WAVCIS:CSI06:1,2017-01-02T20:00:00Z,28.8667,-90.4833,1012.19,11111222 
WAVCIS,ioos:station:WAVCIS:CSI06:1,2017-01-02T21:00:00Z,28.8667,-90.4833,1012.55,11111222 
WAVCIS,ioos:station:WAVCIS:CSI06:1,2017-01-02T22:00:00Z,28.8667,-90.4833,1012.71,11111222 
WAVCIS,ioos:station:WAVCIS:CSI06:1,2017-01-02T23:00:00Z,28.8667,-90.4833,1012.63,11111222 
WAVCIS,ioos:station:WAVCIS:CSI06:1,2017-01-03T00:00:00Z,28.8667,-90.4833,1012.85,11111222 
WAVCIS,ioos:station:WAVCIS:CSI06:1,2017-01-03T01:00:00Z,28.8667,-90.4833,1013.09,11111222 
WAVCIS,ioos:station:WAVCIS:CSI06:1,2017-01-03T02:00:00Z,28.8667,-90.4833,1013.64,11111222 
WAVCIS,ioos:station:WAVCIS:CSI06:1,2017-01-03T03:00:00Z,28.8667,-90.4833,1013.83,11111222 
WAVCIS,ioos:station:WAVCIS:CSI06:1,2017-01-03T04:00:00Z,28.8667,-90.4833,1014.28,11111222 
WAVCIS,ioos:station:WAVCIS:CSI06:1,2017-01-03T05:00:00Z,28.8667,-90.4833,1014.3,11111222 
WAVCIS,ioos:station:WAVCIS:CSI06:1,2017-01-03T06:00:00Z,28.8667,-90.4833,1014.7,11111222 
WAVCIS,ioos:station:WAVCIS:CSI06:1,2017-01-03T07:00:00Z,28.8667,-90.4833,1014.54,11111222 
WAVCIS,ioos:station:WAVCIS:CSI06:1,2017-01-03T08:00:00Z,28.8667,-90.4833,1014.64,11111222 
WAVCIS,ioos:station:WAVCIS:CSI06:1,2017-01-03T09:00:00Z,28.8667,-90.4833,1014.95,11111222 
WAVCIS,ioos:station:WAVCIS:CSI06:1,2017-01-03T10:00:00Z,28.8667,-90.4833,1015.1,11111222 
WAVCIS,ioos:station:WAVCIS:CSI06:1,2017-01-03T11:00:00Z,28.8667,-90.4833,1014.53,11111222 
WAVCIS,ioos:station:WAVCIS:CSI06:1,2017-01-03T12:00:00Z,28.8667,-90.4833,1015.12,11111222 
WAVCIS,ioos:station:WAVCIS:CSI06:1,2017-01-03T13:00:00Z,28.8667,-90.4833,1015.25,11111222 
WAVCIS,ioos:station:WAVCIS:CSI06:1,2017-01-03T14:00:00Z,28.8667,-90.4833,1015.65,11111222 
WAVCIS,ioos:station:WAVCIS:CSI06:1,2017-01-03T15:00:00Z,28.8667,-90.4833,1016.13,11111222 
WAVCIS,ioos:station:WAVCIS:CSI06:1,2017-01-03T16:00:00Z,28.8667,-90.4833,1016.97,11111222 
WAVCIS,ioos:station:WAVCIS:CSI06:1,2017-01-03T17:00:00Z,28.8667,-90.4833,1016.85,11111222 
WAVCIS,ioos:station:WAVCIS:CSI06:1,2017-01-03T18:00:00Z,28.8667,-90.4833,1016.4,11111222 
WAVCIS,ioos:station:WAVCIS:CSI06:1,2017-01-03T19:00:00Z,28.8667,-90.4833,1015.4,11111222 
WAVCIS,ioos:station:WAVCIS:CSI06:1,2017-01-03T20:00:00Z,28.8667,-90.4833,1014.8,11111222 
WAVCIS,ioos:station:WAVCIS:CSI06:1,2017-01-03T21:00:00Z,28.8667,-90.4833,1014.99,11111222 
WAVCIS,ioos:station:WAVCIS:CSI06:1,2017-01-03T22:00:00Z,28.8667,-90.4833,1014.85,11111222 
WAVCIS,ioos:station:WAVCIS:CSI06:1,2017-01-03T23:00:00Z,28.8667,-90.4833,1014.79,11111222 
WAVCIS,ioos:station:WAVCIS:CSI06:1,2017-01-04T00:00:00Z,28.8667,-90.4833,1014.95,11111222 
WAVCIS,ioos:station:WAVCIS:CSI06:1,2017-01-04T01:00:00Z,28.8667,-90.4833,1014.92,11111222 
WAVCIS,ioos:station:WAVCIS:CSI06:1,2017-01-04T02:00:00Z,28.8667,-90.4833,1014.93,11111222 
WAVCIS,ioos:station:WAVCIS:CSI06:1,2017-01-04T03:00:00Z,28.8667,-90.4833,1014.74,11111222 
WAVCIS,ioos:station:WAVCIS:CSI06:1,2017-01-04T04:00:00Z,28.8667,-90.4833,1015.0,11111222 
WAVCIS,ioos:station:WAVCIS:CSI06:1,2017-01-04T05:00:00Z,28.8667,-90.4833,1015.33,11111222 
WAVCIS,ioos:station:WAVCIS:CSI06:1,2017-01-04T06:00:00Z,28.8667,-90.4833,1015.1,11111222 
WAVCIS,ioos:station:WAVCIS:CSI06:1,2017-01-04T07:00:00Z,28.8667,-90.4833,1014.96,11111222 
WAVCIS,ioos:station:WAVCIS:CSI06:1,2017-01-04T08:00:00Z,28.8667,-90.4833,1014.94,11111222 
WAVCIS,ioos:station:WAVCIS:CSI06:1,2017-01-04T09:00:00Z,28.8667,-90.4833,1015.27,11111222 
WAVCIS,ioos:station:WAVCIS:CSI06:1,2017-01-04T10:00:00Z,28.8667,-90.4833,1015.31,11111222 
WAVCIS,ioos:station:WAVCIS:CSI06:1,2017-01-04T11:00:00Z,28.8667,-90.4833,1015.22,11111222 
WAVCIS,ioos:station:WAVCIS:CSI06:1,2017-01-04T12:00:00Z,28.8667,-90.4833,1015.93,11111222 
WAVCIS,ioos:station:WAVCIS:CSI06:1,2017-01-04T13:00:00Z,28.8667,-90.4833,1016.78,11111222 
WAVCIS,ioos:station:WAVCIS:CSI06:1,2017-01-04T14:00:00Z,28.8667,-90.4833,1017.6,11111222 
WAVCIS,ioos:station:WAVCIS:CSI06:1,2017-01-04T15:00:00Z,28.8667,-90.4833,1018.25,11111222 
WAVCIS,ioos:station:WAVCIS:CSI06:1,2017-01-04T16:00:00Z,28.8667,-90.4833,1018.96,11111222 
WAVCIS,ioos:station:WAVCIS:CSI06:1,2017-01-04T17:00:00Z,28.8667,-90.4833,1017.98,11111222 
WAVCIS,ioos:station:WAVCIS:CSI06:1,2017-01-04T18:00:00Z,28.8667,-90.4833,1017.67,11111222 
WAVCIS,ioos:station:WAVCIS:CSI06:1,2017-01-04T19:00:00Z,28.8667,-90.4833,1016.53,11111222 
WAVCIS,ioos:station:WAVCIS:CSI06:1,2017-01-04T20:00:00Z,28.8667,-90.4833,1016.27,11111222 
WAVCIS,ioos:station:WAVCIS:CSI06:1,2017-01-04T21:00:00Z,28.8667,-90.4833,1016.11,11111222 
WAVCIS,ioos:station:WAVCIS:CSI06:1,2017-01-04T22:00:00Z,28.8667,-90.4833,1015.85,11111222 
WAVCIS,ioos:station:WAVCIS:CSI06:1,2017-01-04T23:00:00Z,28.8667,-90.4833,1016.08,11111222 
WAVCIS,ioos:station:WAVCIS:CSI06:1,2017-01-05T00:00:00Z,28.8667,-90.4833,1016.02,11111222 
WAVCIS,ioos:station:WAVCIS:CSI06:1,2017-01-05T01:00:00Z,28.8667,-90.4833,1016.37,11111222 
WAVCIS,ioos:station:WAVCIS:CSI06:1,2017-01-05T02:00:00Z,28.8667,-90.4833,1016.31,11111222 
WAVCIS,ioos:station:WAVCIS:CSI06:1,2017-01-05T03:00:00Z,28.8667,-90.4833,1016.79,11111222 
WAVCIS,ioos:station:WAVCIS:CSI06:1,2017-01-05T04:00:00Z,28.8667,-90.4833,1016.34,11111222 
WAVCIS,ioos:station:WAVCIS:CSI06:1,2017-01-05T05:00:00Z,28.8667,-90.4833,1016.22,11111222 
WAVCIS,ioos:station:WAVCIS:CSI06:1,2017-01-05T06:00:00Z,28.8667,-90.4833,1015.19,11111222 
WAVCIS,ioos:station:WAVCIS:CSI06:1,2017-01-05T07:00:00Z,28.8667,-90.4833,1014.57,11111222 
WAVCIS,ioos:station:WAVCIS:CSI06:1,2017-01-05T08:00:00Z,28.8667,-90.4833,1014.04,11111222 
WAVCIS,ioos:station:WAVCIS:CSI06:1,2017-01-05T09:00:00Z,28.8667,-90.4833,1014.16,11111222 
WAVCIS,ioos:station:WAVCIS:CSI06:1,2017-01-05T10:00:00Z,28.8667,-90.4833,1013.73,11111222 
WAVCIS,ioos:station:WAVCIS:CSI06:1,2017-01-05T11:00:00Z,28.8667,-90.4833,1014.38,11111222 
WAVCIS,ioos:station:WAVCIS:CSI06:1,2017-01-05T12:00:00Z,28.8667,-90.4833,1014.74,11111222 
WAVCIS,ioos:station:WAVCIS:CSI06:1,2017-01-05T13:00:00Z,28.8667,-90.4833,1014.66,11111222 
WAVCIS,ioos:station:WAVCIS:CSI06:1,2017-01-05T14:00:00Z,28.8667,-90.4833,1014.92,11111222 
WAVCIS,ioos:station:WAVCIS:CSI06:1,2017-01-05T15:00:00Z,28.8667,-90.4833,1015.19,11111222 
WAVCIS,ioos:station:WAVCIS:CSI06:1,2017-01-05T16:00:00Z,28.8667,-90.4833,1015.57,11111222 
WAVCIS,ioos:station:WAVCIS:CSI06:1,2017-01-05T17:00:00Z,28.8667,-90.4833,1014.91,11111222 
WAVCIS,ioos:station:WAVCIS:CSI06:1,2017-01-05T18:00:00Z,28.8667,-90.4833,1013.75,11111222 
WAVCIS,ioos:station:WAVCIS:CSI06:1,2017-01-05T19:00:00Z,28.8667,-90.4833,1012.58,11111222 
WAVCIS,ioos:station:WAVCIS:CSI06:1,2017-01-05T20:00:00Z,28.8667,-90.4833,1012.28,11111222 
WAVCIS,ioos:station:WAVCIS:CSI06:1,2017-01-05T21:00:00Z,28.8667,-90.4833,1012.39,11111222 
WAVCIS,ioos:station:WAVCIS:CSI06:1,2017-01-05T22:00:00Z,28.8667,-90.4833,1012.2,11111222 
WAVCIS,ioos:station:WAVCIS:CSI06:1,2017-01-05T23:00:00Z,28.8667,-90.4833,1012.01,11111222 
WAVCIS,ioos:station:WAVCIS:CSI06:1,2017-01-06T00:00:00Z,28.8667,-90.4833,1012.2,11111222 
WAVCIS,ioos:station:WAVCIS:CSI06:1,2017-01-06T01:00:00Z,28.8667,-90.4833,1012.46,11111222 
WAVCIS,ioos:station:WAVCIS:CSI06:1,2017-01-06T02:00:00Z,28.8667,-90.4833,1012.63,11111222 
WAVCIS,ioos:station:WAVCIS:CSI06:1,2017-01-06T03:00:00Z,28.8667,-90.4833,1012.71,11111222 
WAVCIS,ioos:station:WAVCIS:CSI06:1,2017-01-06T04:00:00Z,28.8667,-90.4833,1012.18,11111222 
WAVCIS,ioos:station:WAVCIS:CSI06:1,2017-01-06T05:00:00Z,28.8667,-90.4833,1012.32,11111222 
WAVCIS,ioos:station:WAVCIS:CSI06:1,2017-01-06T06:00:00Z,28.8667,-90.4833,1012.18,11111222 
WAVCIS,ioos:station:WAVCIS:CSI06:1,2017-01-06T07:00:00Z,28.8667,-90.4833,1011.75,11111222 
WAVCIS,ioos:station:WAVCIS:CSI06:1,2017-01-06T08:00:00Z,28.8667,-90.4833,1011.66,11111222 
WAVCIS,ioos:station:WAVCIS:CSI06:1,2017-01-06T09:00:00Z,28.8667,-90.4833,1011.96,11111222 
WAVCIS,ioos:station:WAVCIS:CSI06:1,2017-01-06T10:00:00Z,28.8667,-90.4833,1012.06,11111222 
WAVCIS,ioos:station:WAVCIS:CSI06:1,2017-01-06T11:00:00Z,28.8667,-90.4833,1012.34,11111222 
WAVCIS,ioos:station:WAVCIS:CSI06:1,2017-01-06T12:00:00Z,28.8667,-90.4833,1012.32,11111222 
WAVCIS,ioos:station:WAVCIS:CSI06:1,2017-01-06T13:00:00Z,28.8667,-90.4833,1012.74,11111222 
WAVCIS,ioos:station:WAVCIS:CSI06:1,2017-01-06T14:00:00Z,28.8667,-90.4833,1013.92,11111222 
WAVCIS,ioos:station:WAVCIS:CSI06:1,2017-01-06T15:00:00Z,28.8667,-90.4833,1013.57,11111222 
WAVCIS,ioos:station:WAVCIS:CSI06:1,2017-01-06T16:00:00Z,28.8667,-90.4833,1014.64,11111222 
WAVCIS,ioos:station:WAVCIS:CSI06:1,2017-01-06T17:00:00Z,28.8667,-90.4833,1014.82,11111222 
WAVCIS,ioos:station:WAVCIS:CSI06:1,2017-01-06T18:00:00Z,28.8667,-90.4833,1015.09,11111222 
WAVCIS,ioos:station:WAVCIS:CSI06:1,2017-01-06T19:00:00Z,28.8667,-90.4833,1013.09,11111222 
WAVCIS,ioos:station:WAVCIS:CSI06:1,2017-01-06T20:00:00Z,28.8667,-90.4833,1013.95,11111222 
WAVCIS,ioos:station:WAVCIS:CSI06:1,2017-01-06T21:00:00Z,28.8667,-90.4833,1014.3,11111222 
WAVCIS,ioos:station:WAVCIS:CSI06:1,2017-01-06T22:00:00Z,28.8667,-90.4833,1014.47,11111222 
WAVCIS,ioos:station:WAVCIS:CSI06:1,2017-01-06T23:00:00Z,28.8667,-90.4833,1014.16,11111222 
WAVCIS,ioos:station:WAVCIS:CSI06:1,2017-01-07T00:00:00Z,28.8667,-90.4833,1015.68,11111222 
WAVCIS,ioos:station:WAVCIS:CSI06:1,2017-01-07T01:00:00Z,28.8667,-90.4833,1016.9,11111222 
WAVCIS,ioos:station:WAVCIS:CSI06:1,2017-01-07T02:00:00Z,28.8667,-90.4833,1019.28,11111222 
WAVCIS,ioos:station:WAVCIS:CSI06:1,2017-01-07T03:00:00Z,28.8667,-90.4833,1020.44,11111222 
WAVCIS,ioos:station:WAVCIS:CSI06:1,2017-01-07T04:00:00Z,28.8667,-90.4833,1021.8,11111222 
WAVCIS,ioos:station:WAVCIS:CSI06:1,2017-01-07T05:00:00Z,28.8667,-90.4833,1022.49,11111222 
WAVCIS,ioos:station:WAVCIS:CSI06:1,2017-01-07T06:00:00Z,28.8667,-90.4833,1023.15,11111222 
WAVCIS,ioos:station:WAVCIS:CSI06:1,2017-01-07T07:00:00Z,28.8667,-90.4833,1023.66,11111222 
WAVCIS,ioos:station:WAVCIS:CSI06:1,2017-01-07T08:00:00Z,28.8667,-90.4833,1025.2,11111222 
WAVCIS,ioos:station:WAVCIS:CSI06:1,2017-01-07T09:00:00Z,28.8667,-90.4833,1025.82,11111222 
WAVCIS,ioos:station:WAVCIS:CSI06:1,2017-01-07T10:00:00Z,28.8667,-90.4833,1026.99,11111222 
WAVCIS,ioos:station:WAVCIS:CSI06:1,2017-01-07T11:00:00Z,28.8667,-90.4833,1028.08,11111222 
WAVCIS,ioos:station:WAVCIS:CSI06:1,2017-01-07T12:00:00Z,28.8667,-90.4833,1029.33,11111222 
WAVCIS,ioos:station:WAVCIS:CSI06:1,2017-01-07T13:00:00Z,28.8667,-90.4833,1030.89,11111222 
WAVCIS,ioos:station:WAVCIS:CSI06:1,2017-01-07T14:00:00Z,28.8667,-90.4833,1032.72,11111222 
WAVCIS,ioos:station:WAVCIS:CSI06:1,2017-01-07T15:00:00Z,28.8667,-90.4833,1034.35,11111222 
WAVCIS,ioos:station:WAVCIS:CSI06:1,2017-01-07T16:00:00Z,28.8667,-90.4833,1034.96,11111222 
WAVCIS,ioos:station:WAVCIS:CSI06:1,2017-01-07T17:00:00Z,28.8667,-90.4833,1034.93,11111222 
WAVCIS,ioos:station:WAVCIS:CSI06:1,2017-01-07T18:00:00Z,28.8667,-90.4833,1034.87,11111222 
WAVCIS,ioos:station:WAVCIS:CSI06:1,2017-01-07T19:00:00Z,28.8667,-90.4833,1034.2,11111222 
WAVCIS,ioos:station:WAVCIS:CSI06:1,2017-01-07T20:00:00Z,28.8667,-90.4833,1034.05,11111222 
WAVCIS,ioos:station:WAVCIS:CSI06:1,2017-01-07T21:00:00Z,28.8667,-90.4833,1034.14,11111222 
WAVCIS,ioos:station:WAVCIS:CSI06:1,2017-01-07T22:00:00Z,28.8667,-90.4833,1034.89,11111222 
WAVCIS,ioos:station:WAVCIS:CSI06:1,2017-01-07T23:00:00Z,28.8667,-90.4833,1035.32,11111222 
WAVCIS,ioos:station:WAVCIS:CSI06:1,2017-01-08T00:00:00Z,28.8667,-90.4833,1036.09,11111222 
WAVCIS,ioos:station:WAVCIS:CSI06:1,2017-01-08T01:00:00Z,28.8667,-90.4833,1037.15,11111222 
WAVCIS,ioos:station:WAVCIS:CSI06:1,2017-01-08T02:00:00Z,28.8667,-90.4833,1037.82,11111222 
WAVCIS,ioos:station:WAVCIS:CSI06:1,2017-01-08T03:00:00Z,28.8667,-90.4833,1038.41,11111222 
WAVCIS,ioos:station:WAVCIS:CSI06:1,2017-01-08T04:00:00Z,28.8667,-90.4833,1038.59,11111222 
WAVCIS,ioos:station:WAVCIS:CSI06:1,2017-01-08T05:00:00Z,28.8667,-90.4833,1038.67,11111222 
WAVCIS,ioos:station:WAVCIS:CSI06:1,2017-01-08T06:00:00Z,28.8667,-90.4833,1038.59,11111222 
WAVCIS,ioos:station:WAVCIS:CSI06:1,2017-01-08T07:00:00Z,28.8667,-90.4833,1038.33,11111222 
WAVCIS,ioos:station:WAVCIS:CSI06:1,2017-01-08T08:00:00Z,28.8667,-90.4833,1038.61,11111222 
WAVCIS,ioos:station:WAVCIS:CSI06:1,2017-01-08T09:00:00Z,28.8667,-90.4833,1038.46,11111222 
WAVCIS,ioos:station:WAVCIS:CSI06:1,2017-01-08T10:00:00Z,28.8667,-90.4833,1039.1,11111222 
WAVCIS,ioos:station:WAVCIS:CSI06:1,2017-01-08T11:00:00Z,28.8667,-90.4833,1039.41,11111222 
WAVCIS,ioos:station:WAVCIS:CSI06:1,2017-01-08T12:00:00Z,28.8667,-90.4833,1039.03,11111222 
WAVCIS,ioos:station:WAVCIS:CSI06:1,2017-01-08T13:00:00Z,28.8667,-90.4833,1040.05,11111222 
WAVCIS,ioos:station:WAVCIS:CSI06:1,2017-01-08T14:00:00Z,28.8667,-90.4833,1041.22,11111222 
WAVCIS,ioos:station:WAVCIS:CSI06:1,2017-01-08T15:00:00Z,28.8667,-90.4833,1041.29,11111222 
WAVCIS,ioos:station:WAVCIS:CSI06:1,2017-01-08T16:00:00Z,28.8667,-90.4833,1041.74,11111222 
WAVCIS,ioos:station:WAVCIS:CSI06:1,2017-01-08T17:00:00Z,28.8667,-90.4833,1040.88,11111222 
WAVCIS,ioos:station:WAVCIS:CSI06:1,2017-01-08T18:00:00Z,28.8667,-90.4833,1039.34,11111222 
WAVCIS,ioos:station:WAVCIS:CSI06:1,2017-01-08T19:00:00Z,28.8667,-90.4833,1038.05,11111222 
WAVCIS,ioos:station:WAVCIS:CSI06:1,2017-01-08T20:00:00Z,28.8667,-90.4833,1037.48,11111222 
WAVCIS,ioos:station:WAVCIS:CSI06:1,2017-01-08T21:00:00Z,28.8667,-90.4833,1037.27,11111222 
WAVCIS,ioos:station:WAVCIS:CSI06:1,2017-01-08T22:00:00Z,28.8667,-90.4833,1037.02,11111222 
WAVCIS,ioos:station:WAVCIS:CSI06:1,2017-01-08T23:00:00Z,28.8667,-90.4833,1036.78,11111222 
WAVCIS,ioos:station:WAVCIS:CSI06:1,2017-01-09T00:00:00Z,28.8667,-90.4833,1037.18,11111222 
WAVCIS,ioos:station:WAVCIS:CSI06:1,2017-01-09T01:00:00Z,28.8667,-90.4833,1036.99,11111222 
WAVCIS,ioos:station:WAVCIS:CSI06:1,2017-01-09T02:00:00Z,28.8667,-90.4833,1036.5,11111222 
WAVCIS,ioos:station:WAVCIS:CSI06:1,2017-01-09T03:00:00Z,28.8667,-90.4833,1036.49,11111222 
WAVCIS,ioos:station:WAVCIS:CSI06:1,2017-01-09T04:00:00Z,28.8667,-90.4833,1036.95,11111222 
WAVCIS,ioos:station:WAVCIS:CSI06:1,2017-01-09T05:00:00Z,28.8667,-90.4833,1037.04,11111222 
WAVCIS,ioos:station:WAVCIS:CSI06:1,2017-01-09T06:00:00Z,28.8667,-90.4833,1036.52,11111222 
WAVCIS,ioos:station:WAVCIS:CSI06:1,2017-01-09T07:00:00Z,28.8667,-90.4833,1035.3,11111222 
WAVCIS,ioos:station:WAVCIS:CSI06:1,2017-01-09T08:00:00Z,28.8667,-90.4833,1035.04,11111222 
WAVCIS,ioos:station:WAVCIS:CSI06:1,2017-01-09T09:00:00Z,28.8667,-90.4833,1034.28,11111222 
WAVCIS,ioos:station:WAVCIS:CSI06:1,2017-01-09T10:00:00Z,28.8667,-90.4833,1033.98,11111222 
WAVCIS,ioos:station:WAVCIS:CSI06:1,2017-01-09T11:00:00Z,28.8667,-90.4833,1033.92,11111222 
WAVCIS,ioos:station:WAVCIS:CSI06:1,2017-01-09T12:00:00Z,28.8667,-90.4833,1033.96,11111222 
WAVCIS,ioos:station:WAVCIS:CSI06:1,2017-01-09T13:00:00Z,28.8667,-90.4833,1033.95,11111222 
WAVCIS,ioos:station:WAVCIS:CSI06:1,2017-01-09T14:00:00Z,28.8667,-90.4833,1034.51,11111222 
WAVCIS,ioos:station:WAVCIS:CSI06:1,2017-01-09T15:00:00Z,28.8667,-90.4833,1034.49,11111222 
WAVCIS,ioos:station:WAVCIS:CSI06:1,2017-01-09T16:00:00Z,28.8667,-90.4833,1034.35,11111222 
WAVCIS,ioos:station:WAVCIS:CSI06:1,2017-01-09T17:00:00Z,28.8667,-90.4833,1034.23,11111222 
WAVCIS,ioos:station:WAVCIS:CSI06:1,2017-01-09T18:00:00Z,28.8667,-90.4833,1033.39,11111222 
WAVCIS,ioos:station:WAVCIS:CSI06:1,2017-01-09T19:00:00Z,28.8667,-90.4833,1032.24,11111222 
WAVCIS,ioos:station:WAVCIS:CSI06:1,2017-01-09T20:00:00Z,28.8667,-90.4833,1031.31,11111222 
WAVCIS,ioos:station:WAVCIS:CSI06:1,2017-01-09T21:00:00Z,28.8667,-90.4833,1030.85,11111222 
WAVCIS,ioos:station:WAVCIS:CSI06:1,2017-01-09T22:00:00Z,28.8667,-90.4833,1030.54,11111222 
WAVCIS,ioos:station:WAVCIS:CSI06:1,2017-01-09T23:00:00Z,28.8667,-90.4833,1030.26,11111222 
WAVCIS,ioos:station:WAVCIS:CSI06:1,2017-01-10T00:00:00Z,28.8667,-90.4833,1030.3,11111222 
WAVCIS,ioos:station:WAVCIS:CSI06:1,2017-01-10T01:00:00Z,28.8667,-90.4833,1030.18,11111222 
WAVCIS,ioos:station:WAVCIS:CSI06:1,2017-01-10T02:00:00Z,28.8667,-90.4833,1030.17,11111222 
WAVCIS,ioos:station:WAVCIS:CSI06:1,2017-01-10T03:00:00Z,28.8667,-90.4833,1029.97,11111222 
WAVCIS,ioos:station:WAVCIS:CSI06:1,2017-01-10T04:00:00Z,28.8667,-90.4833,1029.32,11111222 
WAVCIS,ioos:station:WAVCIS:CSI06:1,2017-01-10T05:00:00Z,28.8667,-90.4833,1028.74,11111222 
WAVCIS,ioos:station:WAVCIS:CSI06:1,2017-01-10T06:00:00Z,28.8667,-90.4833,1027.94,11111222 
WAVCIS,ioos:station:WAVCIS:CSI06:1,2017-01-10T07:00:00Z,28.8667,-90.4833,1027.37,11111222 
WAVCIS,ioos:station:WAVCIS:CSI06:1,2017-01-10T08:00:00Z,28.8667,-90.4833,1026.84,11111222 
WAVCIS,ioos:station:WAVCIS:CSI06:1,2017-01-10T09:00:00Z,28.8667,-90.4833,1026.17,11111222 
WAVCIS,ioos:station:WAVCIS:CSI06:1,2017-01-10T10:00:00Z,28.8667,-90.4833,1025.68,11111222 
WAVCIS,ioos:station:WAVCIS:CSI06:1,2017-01-10T11:00:00Z,28.8667,-90.4833,1025.34,11111222 
WAVCIS,ioos:station:WAVCIS:CSI06:1,2017-01-10T12:00:00Z,28.8667,-90.4833,1025.35,11111222 
WAVCIS,ioos:station:WAVCIS:CSI06:1,2017-01-10T13:00:00Z,28.8667,-90.4833,1025.32,11111222 
WAVCIS,ioos:station:WAVCIS:CSI06:1,2017-01-10T14:00:00Z,28.8667,-90.4833,1026.13,11111222 
WAVCIS,ioos:station:WAVCIS:CSI06:1,2017-01-10T15:00:00Z,28.8667,-90.4833,1026.39,11111222 
WAVCIS,ioos:station:WAVCIS:CSI06:1,2017-01-10T16:00:00Z,28.8667,-90.4833,1026.41,11111222 
WAVCIS,ioos:station:WAVCIS:CSI06:1,2017-01-10T17:00:00Z,28.8667,-90.4833,1025.21,11111222 
WAVCIS,ioos:station:WAVCIS:CSI06:1,2017-01-10T18:00:00Z,28.8667,-90.4833,1024.4,11111222 
WAVCIS,ioos:station:WAVCIS:CSI06:1,2017-01-10T19:00:00Z,28.8667,-90.4833,1023.64,11111222 
WAVCIS,ioos:station:WAVCIS:CSI06:1,2017-01-10T20:00:00Z,28.8667,-90.4833,1023.66,11111222 
WAVCIS,ioos:station:WAVCIS:CSI06:1,2017-01-10T21:00:00Z,28.8667,-90.4833,1022.88,11111222 
WAVCIS,ioos:station:WAVCIS:CSI06:1,2017-01-10T22:00:00Z,28.8667,-90.4833,1022.56,11111222 
WAVCIS,ioos:station:WAVCIS:CSI06:1,2017-01-10T23:00:00Z,28.8667,-90.4833,1022.68,11111222 
WAVCIS,ioos:station:WAVCIS:CSI06:1,2017-01-11T00:00:00Z,28.8667,-90.4833,1023.07,11111222 
WAVCIS,ioos:station:WAVCIS:CSI06:1,2017-01-11T01:00:00Z,28.8667,-90.4833,1024.01,11111222 
WAVCIS,ioos:station:WAVCIS:CSI06:1,2017-01-11T02:00:00Z,28.8667,-90.4833,1023.85,11111222 
WAVCIS,ioos:station:WAVCIS:CSI06:1,2017-01-11T03:00:00Z,28.8667,-90.4833,1024.1,11111222 
WAVCIS,ioos:station:WAVCIS:CSI06:1,2017-01-11T04:00:00Z,28.8667,-90.4833,1023.9,11111222 
WAVCIS,ioos:station:WAVCIS:CSI06:1,2017-01-11T05:00:00Z,28.8667,-90.4833,1023.52,11111222 
WAVCIS,ioos:station:WAVCIS:CSI06:1,2017-01-11T06:00:00Z,28.8667,-90.4833,1023.18,11111222 
WAVCIS,ioos:station:WAVCIS:CSI06:1,2017-01-11T07:00:00Z,28.8667,-90.4833,1022.87,11111222 
WAVCIS,ioos:station:WAVCIS:CSI06:1,2017-01-11T08:00:00Z,28.8667,-90.4833,1022.66,11111222 
WAVCIS,ioos:station:WAVCIS:CSI06:1,2017-01-11T09:00:00Z,28.8667,-90.4833,1022.34,11111222 
WAVCIS,ioos:station:WAVCIS:CSI06:1,2017-01-11T10:00:00Z,28.8667,-90.4833,1022.13,11111222 
WAVCIS,ioos:station:WAVCIS:CSI06:1,2017-01-11T11:00:00Z,28.8667,-90.4833,1022.0,11111222 
WAVCIS,ioos:station:WAVCIS:CSI06:1,2017-01-11T12:00:00Z,28.8667,-90.4833,1022.25,11111222 
WAVCIS,ioos:station:WAVCIS:CSI06:1,2017-01-11T13:00:00Z,28.8667,-90.4833,1022.69,11111222 
WAVCIS,ioos:station:WAVCIS:CSI06:1,2017-01-11T14:00:00Z,28.8667,-90.4833,1023.22,11111222 
WAVCIS,ioos:station:WAVCIS:CSI06:1,2017-01-11T15:00:00Z,28.8667,-90.4833,1023.79,11111222 
WAVCIS,ioos:station:WAVCIS:CSI06:1,2017-01-11T16:00:00Z,28.8667,-90.4833,1024.41,11111222 
WAVCIS,ioos:station:WAVCIS:CSI06:1,2017-01-11T17:00:00Z,28.8667,-90.4833,1024.12,11111222 
WAVCIS,ioos:station:WAVCIS:CSI06:1,2017-01-11T18:00:00Z,28.8667,-90.4833,1023.54,11111222 
WAVCIS,ioos:station:WAVCIS:CSI06:1,2017-01-11T19:00:00Z,28.8667,-90.4833,1022.38,11111222 
WAVCIS,ioos:station:WAVCIS:CSI06:1,2017-01-11T20:00:00Z,28.8667,-90.4833,1021.75,11111222 
WAVCIS,ioos:station:WAVCIS:CSI06:1,2017-01-11T21:00:00Z,28.8667,-90.4833,1021.51,11111222 
WAVCIS,ioos:station:WAVCIS:CSI06:1,2017-01-11T22:00:00Z,28.8667,-90.4833,1021.32,11111222 